This is the latest recevied weather packets stored in our database for station/object KC3ELT-10. If no packets are shown the sender has not sent any weather packets the latest 10 day(s).
| Time | Temp. | Humidity | Pressure | Rain* | Wind** | Luminosity | Snow |
|---|---|---|---|---|---|---|---|
| 1777762979 | 10.56° C | 42% | 1005.8 hPa | 0 mm | 1.34 m/s, 287° | - | - |
| 1777762679 | 11.11° C | 42% | 1005.8 hPa | 0 mm | 1.79 m/s, 291° | - | - |
| 1777762379 | 11.11° C | 41% | 1005.8 hPa | 0 mm | 2.24 m/s, 288° | - | - |
| 1777762079 | 11.11° C | 39% | 1005.8 hPa | 0 mm | 2.68 m/s, 280° | - | - |
| 1777761779 | 11.11° C | 39% | 1005.6 hPa | 0 mm | 0.89 m/s, 304° | - | - |
| 1777761479 | 11.11° C | 38% | 1005.6 hPa | 0 mm | 2.24 m/s, 327° | - | - |
| 1777761179 | 11.67° C | 38% | 1005.6 hPa | 0 mm | 1.79 m/s, 0° | - | - |
| 1777760878 | 12.22° C | 40% | 1005.2 hPa | 0 mm | 2.24 m/s, 319° | - | - |
| 1777760579 | 12.78° C | 38% | 1005.2 hPa | 0 mm | 0.89 m/s, 359° | - | - |
| 1777760279 | 12.22° C | 41% | 1005.2 hPa | 0 mm | 0.89 m/s, 325° | - | - |
| 1777759978 | 12.22° C | 38% | 1005.3 hPa | 0 mm | 1.34 m/s, 335° | - | - |
| 1777759679 | 12.22° C | 39% | 1005.3 hPa | 0 mm | 0.45 m/s, 320° | - | - |
| 1777759379 | 12.78° C | 40% | 1005.3 hPa | 0 mm | 1.34 m/s, 354° | - | - |
| 1777759079 | 12.78° C | 40% | 1005.4 hPa | 0 mm | 0 m/s | - | - |
| 1777758779 | 12.78° C | 44% | 1005.4 hPa | 0 mm | 0 m/s | - | - |
| 1777758479 | 12.22° C | 42% | 1005.4 hPa | 0 mm | 0 m/s | - | - |
| 1777758179 | 12.22° C | 41% | 1005.2 hPa | 0 mm | 0.45 m/s, 1° | - | - |
| 1777757879 | 12.22° C | 41% | 1005.2 hPa | 0 mm | 2.68 m/s, 0° | - | - |
| 1777757579 | 12.22° C | 43% | 1005.2 hPa | 0 mm | 0 m/s | - | - |
| 1777757279 | 12.78° C | 39% | 1005 hPa | 0 mm | 0.45 m/s, 301° | - | - |
| 1777756979 | 12.78° C | 41% | 1005 hPa | 0 mm | 0 m/s | - | - |
| 1777756679 | 12.78° C | 39% | 1005 hPa | 0 mm | 1.79 m/s, 34° | - | - |
| 1777756379 | 13.33° C | 40% | 1005 hPa | 0 mm | 0.89 m/s, 342° | - | - |
| 1777756079 | 12.22° C | 40% | 1005 hPa | 0 mm | 1.34 m/s, 359° | - | - |
| 1777755779 | 12.22° C | 39% | 1005 hPa | 0 mm | 2.24 m/s, 263° | - | - |
* Rain latest hour (hover to see other rain measurements)
** Current wind speed in m/s (hover to see current wind gust speed)